Printer-friendly version

IAU Minor Planet Center

Minor Planet Center

MPEC 2000-W47: 2000 WT28

The following Minor Planet Electronic Circular may be linked-to from your own Web pages, but must not otherwise be redistributed electronically.


Read MPEC 2000-W46 Read MPEC 2000-W48


M.P.E.C. 2000-W47                                Issued 2000 Nov. 27, 22:07 UT

     The Minor Planet Electronic Circulars contain information on unusual
         minor planets and routine data on comets.  They are published
   on behalf of Commission 20 of the International Astronomical Union by the
          Minor Planet Center, Smithsonian Astrophysical Observatory,
                          Cambridge, MA 02138, U.S.A.

             Prepared using the Tamkin Foundation Computer Network

                              MPC@CFA.HARVARD.EDU
          URL http://cfa-www.harvard.edu/iau/mpc.html  ISSN 1523-6714

                                   2000 WT28

Observations:
     K00W28T* C2000 11 20.45340 07 39 56.76 +68 42 22.5          18.8        704
     K00W28T  C2000 11 20.46818 07 41 07.11 +68 40 27.9          18.9        704
     K00W28T  C2000 11 20.48314 07 42 17.94 +68 38 26.9          19.0        704
     K00W28T  C2000 11 20.49787 07 43 27.25 +68 36 25.6          18.8        704
     K00W28T  C2000 11 21.37496 08 44 01.17 +66 05 56.3          19.5        704
     K00W28T  C2000 11 21.38966 08 44 46.62 +66 03 16.2          19.4        704
     K00W28T  C2000 11 21.40439 08 45 31.62 +66 00 33.1          19.1        704
     K00W28T  C2000 11 21.42279 08 46 27.36 +65 57 08.5          19.3        704

Observer details:
704 Lincoln Laboratory ETS, New Mexico.  Observers M. Blythe, F. Shelly,
    M. Bezpalko, M. Elowitz, R. Huber, L. Manguso.  Measurers J. Stuart,
    R. Sayer, J. B. Evans, H. Viggh.  1.0-m f/2.15 reflector + CCD.

Orbital elements:
2000 WT28
Epoch 2000 Nov. 12.0 TT = JDT 2451860.5                 Williams
M 356.55567              (2000.0)            P               Q
n   0.24432063     Peri.   18.46775     +0.40337813     -0.91202328
a   2.5341323      Node    47.81649     +0.82641213     +0.32831746
e   0.6058163      Incl.    5.74380     +0.39284738     +0.24580720
P   4.03           H   23.8           G   0.15
From 8 observations 2000 Nov. 20-21.

Ephemeris:
2000 WT28                a,e,i = 2.53, 0.61, 6                   q = 0.9989
Date    TT    R. A. (2000) Decl.     Delta      r     Elong.  Phase     V
2000 11 22    09 13.27   +63 59.4    0.033    1.000   112.2    66.1    18.7
2000 11 23    09 46.14   +60 42.6    0.036    1.000   108.8    69.2    19.0
2000 11 24    10 07.80   +57 45.8    0.040    0.999   106.2    71.6    19.3
2000 11 25    10 22.86   +55 12.7    0.045    0.999   104.3    73.2    19.6
2000 11 26    10 33.83   +53 01.7    0.049    0.999   102.9    74.4    19.8
2000 11 27    10 42.11   +51 09.4    0.053    0.999   101.8    75.2    20.1
2000 11 28    10 48.55   +49 32.8    0.058    0.999   101.1    75.6    20.2
2000 11 29    10 53.68   +48 09.1    0.062    1.000   100.6    75.9    20.4
2000 11 30    10 57.84   +46 56.3    0.066    1.000   100.4    75.9    20.6
2000 12 01    11 01.26   +45 52.4    0.071    1.001   100.2    75.8    20.7
2000 12 02    11 04.11   +44 56.0    0.075    1.002   100.2    75.5    20.8
2000 12 03    11 06.51   +44 05.9    0.080    1.003   100.4    75.1    20.9
2000 12 04    11 08.54   +43 21.2    0.084    1.004   100.6    74.7    21.0
2000 12 05    11 10.26   +42 41.1    0.089    1.006   100.9    74.1    21.1
2000 12 06    11 11.74   +42 04.9    0.093    1.008   101.3    73.5    21.2
2000 12 07    11 13.00   +41 32.3    0.098    1.010   101.7    72.9    21.3
2000 12 08    11 14.08   +41 02.6    0.102    1.012   102.2    72.1    21.4
2000 12 09    11 14.99   +40 35.6    0.107    1.014   102.7    71.4    21.5
2000 12 10    11 15.76   +40 11.0    0.111    1.016   103.3    70.6    21.5
2000 12 11    11 16.40   +39 48.4    0.115    1.019   103.9    69.8    21.6
2000 12 12    11 16.93   +39 27.8    0.120    1.021   104.6    68.9    21.7

Gareth V. Williams           (C) Copyright 2000 MPC           M.P.E.C. 2000-W47

Read MPEC 2000-W46 Read MPEC 2000-W48


Our Web policy. Index to the CBAT/MPC/ICQ pages.


Valid HTML 4.01!